Mount Pleasant, IA

4:53 PM CDT on July 20, 2017 (GMT -0500)
Mount Pleasant Municipal

Weather History for KMPZ - May, 2013

Change the Weather History Date:

Friday, May 3, 2013

  Actual Average Record
Temperature  
Mean Temperature 44 °F -  
Max Temperature 49 °F 67 °F 88 °F (1959)
Min Temperature 39 °F 45 °F 29 °F (1967)
Degree Days  
Heating Degree Days 22    
Moisture  
Dew Point 37 °F    
Average Humidity 80    
Maximum Humidity 83    
Minimum Humidity 77    
Precipitation  
Precipitation 1.41 in - - ()
Sea Level Pressure  
Sea Level Pressure 30.01 in    
Wind  
Wind Speed 16 mph (North)    
Max Wind Speed 22 mph    
Max Gust Speed 28 mph    
Visibility 6 miles    
Events Rain    
Averages and records for this station are not official NWS values.
T = Trace of Precipitation, MM = Missing Value Source: NWS Daily Summary

Daily Weather History Graph

Daily Weather History Graph

Search for Another Location

Airport or City:

Trip Planner

Search our weather history database for the weather conditions in past years. The results will help you decide how hot, cold, wet, or windy it might be!

Date:

Astronomy

May. 03, 2013 Rise Set
Actual Time 6:01 AM CDT 8:05 PM CDT
Civil Twilight 5:31 AM CDT 8:35 PM CDT
Nautical Twilight 4:54 AM CDT 9:12 PM CDT
Astronomical Twilight 4:14 AM CDT 9:52 PM CDT
Moon 2:28 AM CDT (5/3) 1:57 PM CDT (5/3)
Length of Visible Light 15h 04m
Length of Day
14h 03m
Last Quarter, 37% of the Moon is Illuminated
May 3
Last Quarter
May 9
New
May 17
First Quarter
May 24
Full
May 31
Last Quarter

Hourly Weather History & Observations

Time (CDT) Temp. Windchill Dew Point Humidity Pressure Visibility Wind Dir Wind Speed Gust Speed Precip Events Conditions
12:15 AM 40.6 °F 31.7 °F 34.9 °F 80% 30.19 in 10.0 mi NNW 18.4 mph - N/A Rain Light Rain
12:35 AM 40.6 °F 32.0 °F 34.9 °F 80% 30.19 in 7.0 mi NNW 17.3 mph 23.0 mph N/A Rain Light Rain
12:55 AM 40.6 °F 32.3 °F 34.9 °F 80% 30.18 in 7.0 mi NNW 16.1 mph - N/A Rain Rain
1:15 AM 40.5 °F 31.8 °F 34.7 °F 80% 30.18 in 7.0 mi NNW 17.3 mph - N/A   Drizzle
1:35 AM 40.5 °F 31.5 °F 34.7 °F 80% 30.16 in 10.0 mi NNW 18.4 mph 24.2 mph N/A Rain Rain
1:55 AM 40.3 °F 30.7 °F 34.7 °F 80% 30.15 in 10.0 mi North 20.7 mph 26.5 mph N/A   Light Drizzle
2:15 AM 40.5 °F 31.8 °F 34.7 °F 80% 30.15 in 10.0 mi North 17.3 mph 23.0 mph N/A   Light Drizzle
2:35 AM 40.3 °F 31.3 °F 34.3 °F 79% 30.13 in 5.0 mi North 18.4 mph 24.2 mph N/A Rain Light Rain
2:55 AM 40.1 °F 31.0 °F 34.0 °F 79% 30.12 in 7.0 mi North 18.4 mph 26.5 mph N/A   Overcast
3:15 AM 40.1 °F 31.6 °F 34.0 °F 79% 30.11 in 5.0 mi North 16.1 mph 24.2 mph N/A Rain Rain
3:35 AM 39.7 °F 30.3 °F 33.8 °F 79% 30.10 in 2.5 mi North 19.6 mph 27.6 mph N/A Rain Light Rain
3:55 AM 39.9 °F 30.8 °F 33.8 °F 79% 30.09 in 7.0 mi North 18.4 mph 27.6 mph N/A Rain Light Rain
4:15 AM 40.1 °F 31.6 °F 34.0 °F 79% 30.10 in 10.0 mi North 16.1 mph - N/A   Light Drizzle
4:35 AM 39.7 °F 30.9 °F 33.8 °F 79% 30.10 in 10.0 mi North 17.3 mph - N/A   Overcast
4:55 AM 39.9 °F 31.1 °F 33.8 °F 79% 30.11 in 10.0 mi North 17.3 mph 23.0 mph N/A   Light Drizzle
5:15 AM 39.7 °F 30.9 °F 33.8 °F 79% 30.11 in 7.0 mi North 17.3 mph - N/A Rain Light Rain
5:35 AM 39.7 °F 31.9 °F 34.0 °F 80% 30.10 in 3.0 mi North 13.8 mph - 0.02 in Rain Light Rain
5:55 AM 39.7 °F 31.2 °F 34.2 °F 80% 30.09 in 4.0 mi North 16.1 mph - 0.05 in Rain Rain
6:15 AM 39.6 °F 31.7 °F 34.0 °F 80% 30.10 in 3.0 mi NNW 13.8 mph 20.7 mph 0.02 in   Overcast
6:35 AM 39.6 °F 32.1 °F 34.0 °F 80% 30.11 in 4.0 mi NNW 12.7 mph 17.3 mph 0.04 in   Overcast
6:55 AM 39.4 °F 31.1 °F 33.8 °F 80% 30.09 in 7.0 mi NNW 15.0 mph - 0.05 in Rain Rain
7:15 AM 39.6 °F 31.3 °F 34.0 °F 80% 30.09 in 4.0 mi NNW 15.0 mph - 0.02 in   Overcast
7:35 AM 39.6 °F 30.6 °F 34.0 °F 80% 30.08 in 2.5 mi NNW 17.3 mph - 0.05 in   Overcast
7:55 AM 39.6 °F 31.0 °F 33.8 °F 80% 30.07 in 2.5 mi NNW 16.1 mph - 0.06 in   Overcast
8:15 AM 39.6 °F 32.5 °F 33.8 °F 80% 30.09 in 1.2 mi NNW 11.5 mph 20.7 mph 0.06 in   Overcast
8:35 AM 39.6 °F 31.7 °F 34.0 °F 80% 30.08 in 3.0 mi NNW 13.8 mph - 0.09 in Rain Light Rain
8:55 AM 39.7 °F 30.3 °F 33.8 °F 79% 30.04 in 4.0 mi North 19.6 mph 24.2 mph 0.11 in Rain Light Rain
9:15 AM 40.1 °F 30.2 °F 33.8 °F 78% 30.03 in 5.0 mi NNE 21.9 mph 26.5 mph 0.02 in Rain Light Rain
9:35 AM 40.1 °F 31.0 °F 34.0 °F 79% 30.05 in 4.0 mi NNE 18.4 mph 23.0 mph 0.06 in Rain Rain
9:55 AM 40.5 °F 32.1 °F 34.0 °F 78% 30.05 in 3.0 mi North 16.1 mph 25.3 mph 0.11 in Rain Light Rain
10:15 AM 40.6 °F 32.0 °F 34.7 °F 79% 30.03 in 7.0 mi North 17.3 mph - 0.01 in Rain Light Rain
10:35 AM 41.0 °F 33.5 °F 35.1 °F 79% 30.03 in 10.0 mi North 13.8 mph - 0.02 in Rain Light Rain
10:55 AM 41.4 °F 34.0 °F 35.6 °F 80% 30.03 in 5.0 mi North 13.8 mph - 0.02 in Rain Light Rain
11:15 AM 41.4 °F 34.7 °F 35.4 °F 79% 30.03 in 4.0 mi North 11.5 mph 16.1 mph 0.01 in Rain Rain
11:35 AM 41.5 °F 35.4 °F 35.6 °F 79% 30.03 in 4.0 mi North 10.4 mph - 0.04 in Rain Rain
11:55 AM 41.9 °F 35.0 °F 35.8 °F 79% 30.02 in 5.0 mi North 12.7 mph 16.1 mph 0.07 in Rain Rain
12:15 PM 42.1 °F 34.5 °F 36.0 °F 79% 30.00 in 7.0 mi North 15.0 mph - 0.02 in Rain Rain
12:35 PM 42.3 °F 35.1 °F 36.1 °F 79% 29.99 in 7.0 mi North 13.8 mph - 0.03 in Rain Rain
12:55 PM 42.3 °F 35.9 °F 35.6 °F 77% 30.00 in 7.0 mi North 11.5 mph - 0.04 in Rain Light Rain
1:15 PM 42.3 °F 34.1 °F 35.6 °F 77% 29.98 in 10.0 mi North 17.3 mph - 0.01 in Rain Light Rain
1:35 PM 42.4 °F 35.0 °F 36.0 °F 78% 29.99 in 10.0 mi North 15.0 mph - 0.01 in Rain Light Rain
1:55 PM 42.8 °F 35.1 °F 36.1 °F 77% 29.98 in 7.0 mi North 16.1 mph 19.6 mph 0.02 in Rain Rain
2:15 PM 42.8 °F 35.1 °F 36.0 °F 77% 29.98 in 10.0 mi North 16.1 mph - N/A Rain Light Rain
2:35 PM 43.0 °F 35.4 °F 36.5 °F 78% 29.97 in 7.0 mi North 16.1 mph - 0.01 in Rain Light Rain
2:55 PM 43.7 °F 36.3 °F 37.6 °F 79% 29.95 in 10.0 mi North 16.1 mph - 0.01 in Rain Light Rain
3:15 PM 43.9 °F 35.7 °F 37.4 °F 78% 29.94 in 10.0 mi North 19.6 mph 23.0 mph N/A Rain Light Rain
3:35 PM 44.1 °F 36.5 °F 37.8 °F 78% 29.94 in 10.0 mi North 17.3 mph 21.9 mph N/A Rain Light Rain
3:55 PM 43.9 °F 37.2 °F 37.6 °F 78% 29.95 in 10.0 mi North 13.8 mph - N/A Rain Light Rain
4:15 PM 44.2 °F 37.6 °F 38.1 °F 79% 29.93 in 5.0 mi North 13.8 mph 21.9 mph 0.01 in Rain Rain
4:35 PM 44.6 °F 37.4 °F 38.5 °F 79% 29.93 in 5.0 mi North 16.1 mph - 0.03 in Rain Rain
4:55 PM 44.6 °F 38.4 °F 38.7 °F 80% 29.93 in 7.0 mi NNW 12.7 mph 18.4 mph 0.04 in Rain Rain
5:15 PM 45.0 °F 38.5 °F 39.2 °F 80% 29.92 in 10.0 mi NNW 13.8 mph 17.3 mph 0.01 in Rain Rain
5:35 PM 45.0 °F 39.3 °F 39.2 °F 80% 29.91 in 7.0 mi NNW 11.5 mph - 0.02 in Rain Rain
5:55 PM 45.1 °F 39.1 °F 39.6 °F 81% 29.92 in 10.0 mi North 12.7 mph - 0.03 in Rain Rain
6:15 PM 45.1 °F 39.1 °F 39.4 °F 80% 29.92 in 10.0 mi NNW 12.7 mph - N/A Rain Light Rain
6:35 PM 45.5 °F 39.9 °F 39.7 °F 80% 29.92 in 10.0 mi NNW 11.5 mph - 0.01 in Rain Rain
6:55 PM 45.3 °F 40.1 °F 39.7 °F 81% 29.92 in 7.0 mi NW 10.4 mph - 0.03 in Rain Rain
7:15 PM 45.3 °F 39.3 °F 39.9 °F 81% 29.92 in 7.0 mi NNW 12.7 mph - 0.02 in Rain Rain
7:35 PM 45.1 °F 38.4 °F 39.7 °F 81% 29.90 in 4.0 mi NNW 15.0 mph - 0.04 in   Overcast
7:55 PM 45.5 °F 39.2 °F 40.1 °F 81% 29.91 in 10.0 mi NNW 13.8 mph - 0.04 in Rain Light Rain
8:15 PM 45.5 °F 38.9 °F 40.1 °F 81% 29.89 in 5.0 mi NNW 15.0 mph - 0.03 in Rain Light Rain
8:35 PM 45.5 °F 39.2 °F 40.1 °F 81% 29.90 in 7.0 mi NNW 13.8 mph - 0.05 in Rain Heavy Rain
8:55 PM 45.7 °F 38.3 °F 40.5 °F 82% 29.88 in 3.0 mi NNW 18.4 mph 23.0 mph 0.10 in   Overcast
9:15 PM 45.9 °F 38.8 °F 40.6 °F 82% 29.89 in 1.5 mi NNW 17.3 mph 23.0 mph 0.13 in   Overcast
9:35 PM 46.4 °F 39.5 °F 41.0 °F 81% 29.89 in 1.8 mi North 17.3 mph - 0.39 in   Unknown
9:55 PM 46.8 °F - 41.5 °F 82% 29.88 in 7.0 mi North 17.3 mph 20.7 mph 0.40 in Rain Light Rain
10:15 PM 47.3 °F - 41.9 °F 82% 29.87 in 7.0 mi North 17.3 mph - 0.01 in Rain Rain
10:35 PM 47.5 °F - 42.3 °F 82% 29.85 in 10.0 mi North 20.7 mph 25.3 mph 0.02 in Rain Light Rain
10:55 PM 47.7 °F - 42.4 °F 82% 29.85 in 5.0 mi North 16.1 mph 20.7 mph 0.05 in Rain Heavy Rain
11:15 PM 48.2 °F - 42.8 °F 82% 29.83 in 4.0 mi North 17.3 mph - 0.03 in Rain Rain
11:35 PM 48.4 °F - 43.2 °F 82% 29.85 in 5.0 mi North 11.5 mph - 0.07 in Rain Rain
11:55 PM 48.6 °F - 43.5 °F 83% 29.85 in 1.8 mi North 11.5 mph - 0.18 in Rain Light Rain